Location: Pedholt
(56.0260°N, 10.2097°E)
Time: 05:53:04
(UTC+00:00)

Cosmos 1184 Rocket - Pass Details

Date: 14 July 2020
Orbit: 408 x 422 km, 81.2° (Epoch: 14 August)

Event Time Altitude Azimuth Distance (km) Brightness Sun altitude
Exits shadow 00:50:05 16° 199° (SSW) 1,177 4.3 -10.3°
Maximum altitude 00:52:34 77° 286° (WNW) 436 2.8 -10.2°
Drops below altitude 10° 00:55:52 10° 12° (NNE) 1,513 7.1 -10.0°
Sets 00:57:55 0° 14° (NNE) 2,385 8.7 -9.9°
